Regional Weather Roundup
Issued by NWS

Home | Current Version | Previous Version | Text Only | Print | Product List | Glossary On
Versions: 1 2 3 4 5 6 7 8 9 10 11 12 13 14 15 16 17 18 19 20 21 22 23 24 25 26 27 28 29 30 31 32 33 34 35 36 37 38 39 40 41 42 43 44 45 46 47 48 49 50
000
ASUS43 KTOP 182308
RWRKS

WEATHER ROUNDUP FOR KANSAS
NATIONAL WEATHER SERVICE GOODLAND KS
600 PM CDT FRI APR 18 2014

NOTE:  "FAIR" INDICATES FEW OR NO CLOUDS BELOW 12,000 FEET WITH NO
SIGNIFICANT WEATHER AND/OR OBSTRUCTIONS TO VISIBILITY.

KSZ001>006-013>018-027>032-041>047-190000-
NORTHWEST KANSAS

CITY           SKY/WX    TMP DP  RH WIND       PRES   REMARKS
GOODLAND       SUNNY     75  39  27 S28G33    29.91F
HAYS           SUNNY     72  45  37 S26G33    30.01F
HILL CITY      SUNNY     74  41  30 S23G31    29.97F
RUSSELL        SUNNY     70  42  36 S24       30.02F
$$

KSZ061>065-074>080-084>089-190000-
SOUTHWEST KANSAS

CITY           SKY/WX    TMP DP  RH WIND       PRES   REMARKS
DODGE CITY     SUNNY     70  39  32 S25       30.02F
ELKHART          N/A     73  42  32 S22         N/A
GARDEN CITY    SUNNY     70  43  37 S21G31    29.99F
GREAT BEND     SUNNY     70  43  37 S24G31    30.03F
LIBERAL        SUNNY     72  43  35 S20       30.01F
PRATT          SUNNY     68  39  34 S21G26    30.08F
$$

KSZ066>073-081>083-090>101-190000-
SOUTHEAST KANSAS

CITY           SKY/WX    TMP DP  RH WIND       PRES   REMARKS
CHANUTE        SUNNY     70  40  33 SE10G17   30.16F
COFFEYVILLE    SUNNY     72  39  30 E9        30.14F
HUTCHINSON     SUNNY     71  42  35 S22       30.09F
MEDICINE LODGE   N/A     71  42  35 S13G26    30.07F
NEWTON         SUNNY     70  39  32 S16G23    30.14F
PARSONS        SUNNY     72  39  30 S7        30.16F
WICHITA INTL   MOSUNNY   71  41  33 S16       30.11F
WICHITA JABRA  SUNNY     71  42  35 S15G22    30.11F
WICHITA MCCONL SUNNY     71  41  34 S20       30.12F
WINFIELD       SUNNY     71  42  35 S9        30.13F
$$

KSZ007>012-019>026-033>040-048>060-102>105-190000-
NORTHEAST KANSAS

CITY           SKY/WX    TMP DP  RH WIND       PRES   REMARKS
CONCORDIA      SUNNY     70  41  34 S21G29    30.06F
EMPORIA        MOSUNNY   68  39  34 S12       30.13F
LAWRENCE       MOSUNNY   69  42  37 SE12      30.16F
OLATHE IND     MOSUNNY   66  40  38 S7        30.18F
OLATHE EXE     MOSUNNY   65  41  41 S8        30.17F
SALINA         MOSUNNY   71  42  35 S21G30    30.08F
TOPEKA BILLARD MOSUNNY   70  42  36 SE13      30.15F
TOPEKA FORBES  MOSUNNY   69  40  34 SE9       30.14F
$$



USA.gov is the U.S. government's official web portal to all federal, state and local government web resources and services.